DECAYED

OBJECT BA, 57326 (Decayed)

Orbit data source: Space-Track

You're viewing an Uncataloged Satellite

Recently launched and/or uncataloged satellites may have evolving metadata. Metadata may include but not limited to: Owner, Maufacturer, Bus, Motor, and Mission.

OBJECT BA, 57326 was a satellite in LEO that was launched on Tue, 27 Jun 2023 UTC via a SOYUZ-2-1B launch vehicle from the Vostochny Cosmodrome (VOSTO). Unknown objects in Earth's orbit typically refer to objects detected orbiting the Earth but have not yet been identified or cataloged. These objects could be anything from previously untracked satellites, spent rocket stages, debris from satellite collisions, or even natural meteoroids temporarily captured by Earth's gravity. This object's orbit decayed before it could be identified.

Not visible in the next 10 days
Identifier
57326, 2023-091BA
Orbit
Decayed
Country
Flag of TBDTBD
Related business
Flag of RUOOO Stratonavtika (RU)
Manufacturer
MKS
Mission
Decayed Commercial Communications
Bus & Motor
TINYSAT 2TU, Unknown motor
Mass
0.25 kg wet, 0.25 kg dry
Launch date (UTC)
2023-06-27 (3 years ago)
Launch vehicle
SOYUZ-2-1B
Launch site
Vostochny Cosmodrome (VOSTO)
Object type
Unknown
Shape & HBR
Box, 0.1 m
Radar Cross Section
0.006 m², Small (<0.1 m²)

Expand to show TLE details & history
Last TLE update: 5 days ago

TLE from 5 days ago
0 OBJECT BA
1 57326U 23091BA  26157.85242748  .08018696  25705-5  11040-2 0  9999
2 57326  97.4819 241.4388 0014408 270.1398  89.8248 16.34882943161780
Epoch: 2026-06-06T20:27Z
TLE epoch observation values (Epoch: 2026-06-06T20:27:29.734Z)
Latitude
0.00005°
Longitude
39.30286°
Altitude
182.677 km
Speed
7.797 km/s
True Right ascension
16h 05m 45s
True Declination
0° 00' 00"
Sunlit
Object was in full shadow at epoch
Visualization orbit readout
Latitude
Unknown
Longitude
Unknown
Altitude
Unknown
Speed
Unknown
Apparent Right ascension
Unknown
Apparent Declination
Unknown
Sunlit
N/A
Visualization observer readout
Local Sidereal Time
14:27:11
Azimuth
Unknown
Elevation
Unknown
Doppler factor
Unknown
Orbital elements
Apogee altitude
185.712 km
Perigee altitude
166.824 km
Semi-major axis
6,554.405 km
Eccentricity
0.00144
Inclination
97.4819°
RAAN
241.4388°
Arg. of periapsis
270.1398°
True anomaly
89.9899°
Mean anomaly
89.8248°
Eccentric anomaly
89.90735°
Mean motion
4.09019 °/min
Orbital period
88.02 mins
BSTAR
0.001104
Loading maneuver chart data...
Computing Atmospheric mass density...
Loading historical data...
Loading historical data...
Loading historical data...
Loading historical data...
Loading historical data...
Loading historical data...
Loading historical data...

Documentation

Showing up to 5 results
|